Location: Unspecified
(0.0000°N, 0.0000°E)
Time: 08:50:01
(UTC+00:00)

Explorer 11/Cluster Stage 4 - Pass Details

Date: 17 July 2020
Orbit: 467 x 1259 km, 28.8° (Epoch: 03 August)

Event Time Altitude Azimuth Distance (km) Brightness Sun altitude
Rises 03:02:58 0° 210° (SSW) 2,945 - -42.0°
Reaches altitude 10° 03:07:25 10° 171° (S) 1,841 - -41.0°
Maximum altitude 03:08:22 11° 158° (SSE) 1,765 - -40.8°
Drops below altitude 10° 03:09:16 10° 144° (SE) 1,772 - -40.6°
Sets 03:13:09 0° 103° (ESE) 2,543 - -39.7°
Exits shadow 03:13:19 - 102° (ESE) 2,588 9.8 -39.7°
